Meteo Giornale » Osservazioni meteo Italia » Catania-Fontanarossa

ore: 05:50 - Osservazioni Meteo Catania-Fontanarossa
Lat. 37° 28' N Lon. 15° 3' E Alt. 11 metri s.l.m.

molto_nuvoloso Europe/Rome

8 °C

Molto Nuvoloso

Temp. 24 Ore

6 °C

17 °C

Nord

5.5 Km/h

Dew point 8 °C

Umidità 100 %

Visibilità  8 Km

Il sole sorge alle ore 06:22

Il sole tramonta alle ore 17:59

Data e Ora Cielo e Fenomeni T °C DP °C Um. % Pres. hPa Vis. km Vento km/h
Oggi h: 05:50 molto_nuvoloso Molto Nuvoloso 8 8 100 1020 8 N 5.5
Oggi h: 05:20 sereno Sereno 8 8 100 1020 10 O 7.4
Oggi h: 04:50 sereno Sereno 9 8 93 1020 10 S/SO 7.4
Oggi h: 04:20 sereno Sereno 8 8 100 1020 10 O/SO 7.4
Oggi h: 03:50 nuvoloso Nuvoloso 8 8 100 1019 10 O/SO 9.3
Oggi h: 03:20 molto_nuvoloso Molto Nuvoloso 9 9 100 1020 10 SO 7.4
Oggi h: 02:50 molto_nuvoloso Molto Nuvoloso 9 9 100 1019 10 O/SO 7.4
Oggi h: 02:20 molto_nuvoloso Molto Nuvoloso 10 9 93 1020 10 SO 9.3
Oggi h: 01:50 molto_nuvoloso Molto Nuvoloso 10 9 93 1020 10 O/SO 9.3
Oggi h: 01:20 molto_nuvoloso Molto Nuvoloso 10 9 93 1020 10 O/SO 9.3
Oggi h: 00:50 molto_nuvoloso Molto Nuvoloso 11 10 93 1020 10 O 9.3
Oggi h: 00:20 molto_nuvoloso Molto Nuvoloso 11 10 93 1020 10 SO 9.3
Ieri h: 23:50 molto_nuvoloso Molto Nuvoloso 12 11 93 1020 10 N 3.7
Ieri h: 23:20 molto_nuvoloso Molto Nuvoloso 13 10 81 1020 10 N 5.5
Ieri h: 22:20 molto_nuvoloso Molto Nuvoloso 12 10 87 1020 10 E 7.4
Ieri h: 21:50 molto_nuvoloso Molto Nuvoloso 13 11 87 1020 10 E/NE 7.4
Ieri h: 21:20 nuvoloso Nuvoloso 13 11 87 1019 10 E/NE 7.4
Ieri h: 20:50 molto_nuvoloso Molto Nuvoloso 13 11 87 1019 10 NE 9.3
Ieri h: 19:50 molto_nuvoloso Molto Nuvoloso 13 11 87 1019 10 E/NE 9.3
Ieri h: 19:20 molto_nuvoloso Molto Nuvoloso 14 11 82 1019 10 E/NE 9.3
Ieri h: 18:50 molto_nuvoloso Molto Nuvoloso 14 11 82 1018 10 E/NE 11.1
Ieri h: 18:20 molto_nuvoloso Molto Nuvoloso 14 11 82 1018 10 E/NE 9.3
Ieri h: 17:50 molto_nuvoloso Molto Nuvoloso 14 11 82 1018 10 E 9.3
Ieri h: 17:20 molto_nuvoloso Molto Nuvoloso 14 11 82 1018 10 E 7.4
Ieri h: 16:50 molto_nuvoloso Molto Nuvoloso 14 11 82 1018 10 E/SE 9.3
Ieri h: 16:20 molto_nuvoloso Molto Nuvoloso 15 10 72 1018 10 SE 13
Ieri h: 15:50 molto_nuvoloso Molto Nuvoloso 15 10 72 1017 10 SE 9.3
Ieri h: 15:20 molto_nuvoloso Molto Nuvoloso 15 10 72 1017 10 E/SE 7.4
Ieri h: 14:50 molto_nuvoloso Molto Nuvoloso 15 10 72 1018 10 S/SE 9.3
Ieri h: 14:20 molto_nuvoloso Molto Nuvoloso 15 10 72 1018 10 SE 9.3
Ieri h: 13:50 molto_nuvoloso Molto Nuvoloso 16 10 67 1018 10 S/SE 7.4
Ieri h: 12:50 molto_nuvoloso Molto Nuvoloso 16 8 58 1019 10 N 5.5
Ieri h: 12:20 molto_nuvoloso Molto Nuvoloso 16 8 58 1019 10 SO 9.3
Ieri h: 11:50 poco_nuvoloso Poco Nuvoloso 17 9 59 1019 10 NO 7.4
Ieri h: 11:20 nuvoloso Nuvoloso 16 9 63 1019 10 O/NO 7.4
Ieri h: 10:50 molto_nuvoloso Molto Nuvoloso 15 8 62 1019 10 O 9.3
Ieri h: 10:20 molto_nuvoloso Molto Nuvoloso 15 9 67 1020 10 O 14.8
Ieri h: 09:50 molto_nuvoloso Molto Nuvoloso 13 9 76 1020 10 O/SO 14.8
Ieri h: 09:20 coperto_pioggia Pioviggine Leggera 12 10 87 1020 8 O/SO 11.1
Ieri h: 08:50 coperto_pioggia Pioggia Debole 10 9 93 1020 7 O/SO 11.1
Ieri h: 08:20 coperto_pioggia Pioviggine Leggera 9 8 93 1020 7 O/SO 16.7
Ieri h: 07:50 molto_nuvoloso Molto Nuvoloso 8 7 93 1020 8 O/SO 7.4
Ieri h: 07:20 molto_nuvoloso Molto Nuvoloso 8 7 93 1020 8 O/SO 9.3
Ieri h: 06:50 sereno Sereno 7 6 93 1019 8 SO 9.3
Ieri h: 05:50 foschia Foschia 6 5 93 1019 5 S/SO 11.1